Flag for Canada Weather past 2 weeks in Qikiqtarjuaq, Nunavut Territory, Canada

Now
0 °F

Overcast.


Feels Like: -18 °F
Forecast: -7 / 9 °F
Wind: 12 mph from Southwest

Location: Broughton Island Airport


UV Index: 0 (Low)

Visibility: 9 mi


Pressure: 29.91 "Hg

Humidity: 71%

Dew point: -8 °F

Location of QikiqtarjuaqLocation

Historic Weather in Qikiqtarjuaq

°F

Qikiqtarjuaq temperature yesterday

Maximum temperature yesterday: 9 °F (at 2:00 PM)
Minimum temperature yesterday: -18 °F (at 5:00 AM)
Average temperature yesterday: 0 °F

Past Weeks' High & Low Weather Summary

 TemperatureHumidityPressure
High9 °F (Apr 10, 1:00 PM)92% (Apr 13, 9:03 PM)30.25 "Hg (Apr 13, 9:03 PM)
Low-22 °F (Apr 5, 7:00 AM)59% (Apr 5, 1:00 PM)29.21 "Hg (Apr 10, 7:03 PM)
Average-3 °F75%29.80 "Hg
* Reported Apr 4 8:00 PM — Apr 19 8:00 PM, Qikiqtarjuaq, Weather by CustomWeather, © 2014

Note: Actual official high and low records may vary slightly from our data, if they occured in-between our weather recording intervals... More about our weather records

Advertising

Historic Weather Conditions — Data for Previous 24 hours

 ConditionsComfort  
Time TempWeatherWind HumidityBarometerVisibility
8:00 PM
Apr 19
1 °FSunny.9 mph78%29.91 "Hg9 mi
7:00 PM1 °FSunny.10 mph71%29.90 "Hg9 mi
6:00 PM5 °FSunny.9 mph72%29.88 "Hg9 mi
5:00 PM7 °FScattered clouds.8 mph72%29.88 "Hg15 mi
4:00 PM7 °FPassing clouds.7 mph72%29.86 "Hg15 mi
3:00 PM9 °FScattered clouds.2 mph61%29.85 "Hg15 mi
2:00 PM7 °FOvercast.2 mph66%29.85 "Hg15 mi
1:00 PM5 °FOvercast.No wind66%29.83 "Hg15 mi
12:00 PM5 °FMore clouds than sun.5 mph72%29.83 "Hg15 mi
11:00 AM5 °FOvercast.3 mph66%29.81 "Hg15 mi
10:00 AM3 °FPartly sunny.No wind66%29.80 "Hg15 mi
9:00 AM1 °FPartly sunny.6 mph71%29.79 "Hg15 mi
8:00 AM1 °FOvercast.12 mph71%29.77 "Hg15 mi
7:00 AM1 °FSunny.16 mph65%29.76 "Hg9 mi
6:00 AM0 °FSunny.16 mph65%29.75 "Hg9 mi
5:00 AM1 °FClear.18 mph65%29.74 "HgN/A
4:46 AM0 °FFrigid.17 mph65%29.74 "Hg9 mi
3:00 AM-4 °FClear.9 mph84%29.74 "Hg9 mi
2:00 AM0 °FClear.2 mph78%29.74 "Hg9 mi
1:00 AM-2 °FClear.3 mph77%29.73 "Hg9 mi
12:00 AM1 °FClear.10 mph65%29.71 "Hg9 mi
11:00 PM
Apr 18
3 °FClear.8 mph66%29.69 "Hg9 mi
10:00 PM1 °FClear.17 mph65%29.66 "Hg9 mi
9:00 PM3 °FSunny.17 mph60%29.65 "Hg9 mi
Weather by CustomWeather, © 2014

See weather overview